Weather History for KPIH - April, 2012

Change the Weather History Date:

Thursday, April 12, 2012

  Actual Average Record
Temperature  
Mean Temperature 45 °F 45 °F  
Max Temperature 52 °F 57 °F 81 °F (1988)
Min Temperature 38 °F 32 °F 13 °F (1997)
Degree Days  
Heating Degree Days 20 20  
Month to date heating degree days 250 258  
Since 1 July heating degree days 5925 6370  
Cooling Degree Days 0 0  
Month to date cooling degree days 0 0  
Year to date cooling degree days 0 0  
Moisture  
Dew Point 29 °F    
Average Humidity 55    
Maximum Humidity 82    
Minimum Humidity 28    
Precipitation  
Precipitation 0.02 in 0.04 in 0.37 in (1986)
Month to date precipitation 0.37 0.43  
Year to date precipitation 3.79 3.65  
Snow  
Snow 0.00 in - - ()
Month to date snowfall 0.8  
Since 1 July snowfall 15.8  
Snow Depth 0.00 in    
Sea Level Pressure  
Sea Level Pressure 29.76 in    
Wind  
Wind Speed 16 mph (SW)    
Max Wind Speed 26 mph    
Max Gust Speed 35 mph    
Visibility 10 miles    
Events      
T = Trace of Precipitation, MM = Missing Value Source: NWS Daily Summary

Daily Weather History Graph

Daily Weather History Graph

Search for Another Location

Airport or City:

Trip Planner

Search our weather history database for the weather conditions in past years. The results will help you decide how hot, cold, wet, or windy it might be!

Date:

Astronomy

Apr. 12, 2012 Rise Set
Actual Time 6:52 AM MDT 8:09 PM MDT
Civil Twilight 6:23 AM MDT 8:39 PM MDT
Nautical Twilight 5:48 AM MDT 9:14 PM MDT
Astronomical Twilight 5:11 AM MDT 9:51 PM MDT
Moon 2:05 AM MDT (4/12) 11:47 AM MDT (4/12)
Length of Visible Light 14h 15m
Length of Day
13h 17m
Waning Gibbous, 58% of the Moon is Illuminated
Apr 12
Waning Gibbous
Apr 13
Last Quarter
Apr 21
New
Apr 29
First Quarter
May 5
Full

Hourly Weather History & Observations

Time (MDT) Temp. Windchill Dew Point Humidity Pressure Visibility Wind Dir Wind Speed Gust Speed Precip Events Conditions
12:53 AM 45.0 °F 40.6 °F 37.9 °F 76% 29.63 in 10.0 mi SSW 8.1 mph - N/A   Overcast
1:53 AM 45.0 °F 38.5 °F 37.9 °F 76% 29.62 in 10.0 mi South 13.8 mph - 0.00 in   Overcast
2:53 AM 43.0 °F 36.0 °F 37.9 °F 82% 29.65 in 10.0 mi SSW 13.8 mph - 0.02 in   Overcast
3:53 AM 44.1 °F 37.1 °F 37.9 °F 79% 29.67 in 10.0 mi SSW 15.0 mph - 0.00 in   Overcast
4:53 AM 44.1 °F 37.7 °F 37.0 °F 76% 29.69 in 10.0 mi SW 12.7 mph - N/A   Mostly Cloudy
5:53 AM 39.9 °F 31.4 °F 34.0 °F 79% 29.72 in 10.0 mi SSW 16.1 mph - N/A   Clear
6:53 AM 39.0 °F 30.6 °F 30.9 °F 73% 29.76 in 10.0 mi SSW 15.0 mph 26.5 mph N/A   Partly Cloudy
7:53 AM 39.9 °F 29.2 °F 30.9 °F 70% 29.79 in 10.0 mi WSW 25.3 mph 34.5 mph N/A   Partly Cloudy
8:53 AM 42.1 °F 33.6 °F 30.0 °F 62% 29.81 in 10.0 mi SW 18.4 mph 27.6 mph N/A   Partly Cloudy
9:53 AM 44.1 °F 36.2 °F 30.9 °F 60% 29.81 in 10.0 mi SW 18.4 mph 31.1 mph N/A   Scattered Clouds
10:53 AM 46.0 °F 39.0 °F 30.0 °F 54% 29.83 in 10.0 mi SW 17.3 mph 26.5 mph N/A   Scattered Clouds
11:53 AM 50.0 °F - 28.0 °F 43% 29.80 in 10.0 mi WSW 19.6 mph 29.9 mph N/A   Scattered Clouds
12:53 PM 48.9 °F - 25.0 °F 39% 29.80 in 10.0 mi WSW 21.9 mph 31.1 mph N/A   Mostly Cloudy
1:53 PM 48.0 °F - 21.9 °F 36% 29.80 in 10.0 mi SW 20.7 mph 28.8 mph N/A   Mostly Cloudy
2:53 PM 51.1 °F - 24.1 °F 35% 29.80 in 10.0 mi SW 18.4 mph 26.5 mph N/A   Scattered Clouds
3:53 PM 51.1 °F - 19.9 °F 29% 29.77 in 10.0 mi SW 18.4 mph 32.2 mph N/A   Scattered Clouds
4:53 PM 51.1 °F - 21.0 °F 31% 29.75 in 10.0 mi WSW 15.0 mph 21.9 mph N/A   Scattered Clouds
5:53 PM 52.0 °F - 21.0 °F 30% 29.76 in 10.0 mi WSW 15.0 mph - N/A   Scattered Clouds
6:53 PM 51.1 °F - 21.9 °F 32% 29.77 in 10.0 mi WSW 12.7 mph - N/A   Scattered Clouds
7:53 PM 48.0 °F - 24.1 °F 39% 29.77 in 10.0 mi SSW 8.1 mph - N/A   Clear
8:53 PM 43.0 °F 36.0 °F 30.9 °F 62% 29.79 in 10.0 mi South 13.8 mph - N/A   Clear
9:53 PM 42.1 °F 34.9 °F 30.0 °F 62% 29.81 in 10.0 mi South 13.8 mph - N/A   Clear
10:53 PM 41.0 °F 34.3 °F 30.9 °F 67% 29.81 in 10.0 mi South 11.5 mph - N/A   Clear
11:53 PM 42.1 °F 34.9 °F 32.0 °F 67% 29.81 in 10.0 mi South 13.8 mph 23.0 mph N/A   Clear